Regional Weather Roundup
Issued by NWS

Home | Current Version | Previous Version | Graphics & Text | Print | Product List | Glossary On
Versions: 1 2 3 4 5 6 7 8 9 10 11 12 13 14 15 16 17 18 19 20 21 22 23 24 25 26 27 28 29 30 31 32 33 34 35 36 37 38 39 40 41 42 43 44 45 46 47 48 49 50
000
ASUS43 KFSD 230402
RWRSD

WEATHER ROUNDUP FOR SOUTH DAKOTA
NATIONAL WEATHER SERVICE SIOUX FALLS SD
1100 PM CDT FRI SEP 22 2017

NOTE: "FAIR" INDICATES FEW OR NO CLOUDS BELOW 12,000 FEET WITH NO
SIGNIFICANT WEATHER AND/OR OBSTRUCTIONS TO VISIBILITY.


SDZ001>005-009-010-012>017-230500-
NORTHWEST AND NORTH CENTRAL SOUTH DAKOTA

CITY           SKY/WX    TMP DP  RH WIND       PRES   REMARKS
BUFFALO          N/A     44  41  89 N9        29.95F
FAITH            N/A     47  42  83 N12       30.00R
MOBRIDGE       CLOUDY    52  47  83 N20G30    29.90R
$$

SDZ012>016-024>037-041>051-057-063-072>074-230500-
SOUTHWEST AND SOUTH CENTRAL SOUTH DAKOTA

CITY           SKY/WX    TMP DP  RH WIND       PRES   REMARKS
RAPID CTY ARPT CLOUDY    48  36  61 N18       30.02R
PIERRE         CLOUDY    51  45  79 NW14      29.93F
CUSTER         RAIN      45  41  86 NE8       29.98R
ELLSWORTH AFB  CLOUDY    48  36  63 N17       30.02R
PHILIP         LGT RAIN  50  43  77 N15G22    29.96S
PINE RIDGE     PTCLDY    52  40  63 N12       29.99R
SPEARFISH      RAIN      43  39  87 W5        30.04R
WINNER         CLOUDY    57  50  77 NW13      29.93R
$$

SDZ004>011-016>023-039-040-230500-
NORTHEAST SOUTH DAKOTA

CITY           SKY/WX    TMP DP  RH WIND       PRES   REMARKS
ABERDEEN       CLOUDY    57  53  86 N20       29.82S
WATERTOWN      CLOUDY    63  61  93 W9        29.81R
BROOKINGS      PTCLDY    66  65  96 W5        29.81S
SISSETON         N/A     65  60  84 W15       29.76R
$$

SDZ017-020-022-023-036>040-048>070-230500-
SOUTHEAST SOUTH DAKOTA

CITY           SKY/WX    TMP DP  RH WIND       PRES   REMARKS
SIOUX FALLS    MOCLDY    73  67  81 NW5       29.80R
HURON          LGT RAIN  57  55  93 N13       29.85R
CHAMBERLAIN    CLOUDY    58  54  89 W7        29.90R
MITCHELL       CLOUDY    62  57  83 N7        29.84R
YANKTON        CLOUDY    68  61  78 W10       29.82R
$$

ABBREVIATIONS USED IN REMARKS
   TC - TEMPERATURE IN CELSIUS
  WCI - WIND CHILL INDEX
   HX - HEAT INDEX
  VSB - VISIBILITY





USA.gov is the U.S. government's official web portal to all federal, state and local government web resources and services.